SCP
0 0 0 0 0 0 0 0 0 0 0 0 0 0 0 0 0 0 0 0 0 0 0 0 0 0 1 0 0 0 0 0 0 0 0 0 0 0 0 0 0 0 0 0
0 0 0 0 0 0 0 0 0 0 0 0 0 0 0 0 0 0 0 0 0 0 0 0 0 0 0 0 0 0 0 0 0 0 0 0 0 0 0 0 0 0 0 0
0 0 0 0 0 0 0 0 0 0 0 0 0 0 0 0 0 0 0 0 0 0 0 0 0 0 0 0 0 0 0 0 0 0 0 0 0 0 0 0 0 0 0 0
0 0 0 0 0 0 0 0 0 0 0 0 0 0 0 0 0 0 0 0 0 0 0 0 0 0 0 0 0 0 1 1 1 0 0 0 0 0 0 0 0 0 0 0
0 0 0 0 0 0 0 0 0 0 0 0 0 0 0 0 0 0 0 0 0 0 0 0 0 0 0 0 0 0 0 0 0 0 0 0 0 0 0 0 0 0 0 0
0 0 0 0 0 0 0 0 0 0 0 0 0 0 0 0 0 0 0 0 0 0 0 -0 0 0 0 0 0 0 0 0 0 0 0 0 0 0 0 0 0 0 0 0
0 0 0 0 0 0 0 0 0 0 0 0 0 0 0 0 0 0 0 0 0 0 0 0 -0 0 0 0 0 0 0 0 0 0 0 -0 0 0 0 0 1 0 0 0
0 0 0 0 0 0 0 0 0 0 0 0 0 0 0 0 0 0 0 0 0 0 0 0 -0 -0 0 0 0 0 0 0 0 0 -0 -0 -0 0 0 1 1 1 1 1
0 0 0 0 0 0 0 0 0 0 0 0 0 0 0 0 0 0 0 0 0 0 0 0 0 -0 -0 -0 0 0 0 0 0 -0 0 0 -0 -0 0 1 1 1 1 2
0 0 0 0 0 0 0 0 -0 -0 0 0 0 0 0 0 0 0 0 0 0 0 0 0 0 -0 -0 -0 -0 0 0 0 0 0 0 0 -0 0 0 1 1 1 2 2
0 0 0 0 0 0 0 0 0 0 -0 0 0 0 0 0 0 0 -0 -0 0 0 0 0 0 0 -0 -0 -0 -0 0 0 0 0 0 0 0 0 1 1 2 2 2 2
0 0 0 0 0 0 0 0 0 0 0 0 0 0 0 0 0 0 0 0 0 0 0 0 0 0 0 -0 -0 -0 -0 0 0 0 0 0 -0 -0 0 0 0 0 1 2
0 0 0 0 0 0 0 0 0 0 0 0 0 0 0 0 0 0 0 0 0 0 0 0 0 0 0 0 0 -0 -0 -0 0 0 0 0 0 0 -0 0 0 0 0 0
0 0 0 0 0 0 0 0 0 0 0 0 -0 -0 0 0 0 0 0 0 0 0 0 0 0 0 0 0 -0 0 0 0 -0 0 0 0 0 0 0 0 0 0 0 0
0 0 0 0 0 0 0 0 0 0 0 0 -0 -0 0 0 0 0 0 0 0 0 0 0 0 0 0 0 0 0 0 0 0 0 0 0 0 0 0 0 0 0 0 0
0 0 0 0 0 0 0 0 0 0 0 -0 -0 -0 0 0 0 0 0 0 0 0 0 0 0 0 0 0 0 0 0 0 0 0 0 0 0 0 0 0 0 0 0 0
0 0 0 0 0 0 0 0 0 0 0 -0 -0 -0 0 0 0 0 0 0 0 0 0 0 0 0 0 0 0 0 0 0 0 0 0 0 0 0 0 0 0 0 0 0
0 0 0 0 0 0 0 0 0 -0 -0 -0 -0 -0 0 0 0 0 0 0 0 0 0 0 0 0 0 0 0 0 0 0 0 0 0 0 0 0 0 0 0 0 0 0
0 0 0 0 0 0 0 0 0 0 -0 -0 -0 -0 0 0 0 0 0 0 0 0 0 0 0 0 0 0 0 0 0 0 0 0 0 0 0 0 0 0 0 0 0 0
0 0 0 0 0 0 0 0 0 0 -0 -0 -0 -0 -0 0 0 0 0 0 0 0 0 0 0 0 0 0 0 0 0 0 0 0 0 0 0 0 0 0 0 0 0 0
0 0 0 0 0 0 0 0 0 -0 -0 -0 -0 -0 -0 0 0 0 0 0 0 0 0 0 0 0 0 0 0 0 0 0 0 0 0 0 0 0 0 0 0 0 0 0
0 0 0 0 0 0 0 0 0 0 -0 -0 -0 -0 -0 -0 0 0 0 0 0 0 0 0 0 0 0 0 0 0 0 0 0 0 0 0 0 0 0 0 0 0 0 0
0 0 0 0 0 0 0 0 0 0 0 -0 -0 -0 -0 -0 -0 -0 0 0 0 0 0 0 0 0 0 0 0 0 0 0 0 0 0 0 0 0 0 0 0 0 0 0
0 0 0 0 0 0 0 0 0 0 0 0 -0 0 -0 -0 -0 -0 -0 -0 0 0 0 0 0 0 0 0 0 0 0 0 0 0 0 0 0 0 0 0 0 0 0 0
0 0 0 0 0 0 0 0 0 -0 0 0 -0 -0 0 0 0 -0 -0 -0 -0 -0 -0 -0 0 0 0 0 0 0 0 0 0 0 0 0 0 0 0 0 0 0 0 0
0 0 0 0 0 0 0 0 0 0 -0 -0 -0 -0 -0 0 -0 -0 -0 -0 0 -0 -0 -0 -0 -0 -0 -0 -0 0 0 0 0 0 0 0 0 0 0 0 0 0 0 0
0 0 0 0 0 0 0 0 0 0 -0 -0 0 0 -0 -0 -0 -0 0 -0 -0 0 -0 -0 -0 -0 -0 -0 -0 -0 -0 0 0 0 0 0 0 0 0 0 0 0 0 0
Wind_Speed_500mb
5 4 4 3 4 7 3 6 6 8 8 19 20 23 35 30 36 60 61 68 62 56 50 37 5 16 35 36 59 71 72 86 94 92 81 76 75 75 80 82 86 82 74 70
3 5 6 4 8 8 4 5 7 7 7 24 30 36 40 47 41 44 49 56 60 54 51 49 39 9 19 34 47 35 58 81 81 87 89 82 79 79 76 81 85 88 90 82
5 7 3 7 10 11 13 18 8 9 7 19 22 29 42 49 49 42 42 44 53 56 55 53 46 34 14 20 30 53 57 61 63 78 82 72 75 81 84 79 80 91 92 94
3 6 3 6 11 12 19 11 11 12 16 18 13 1 39 49 51 50 43 36 38 42 46 50 54 41 25 19 12 19 45 53 62 64 60 64 65 72 83 87 84 83 90 98
7 5 8 4 8 6 6 2 11 6 17 24 35 16 17 38 44 41 37 39 36 30 42 48 54 52 42 20 25 24 23 41 48 47 44 53 61 69 69 79 86 86 88 90
5 7 9 6 8 13 12 7 19 20 19 25 33 8 2 43 45 39 33 32 42 41 31 41 45 45 44 39 19 12 32 37 31 34 38 33 53 65 67 69 78 79 79 84
5 5 6 5 18 16 10 4 15 17 20 25 6 17 48 50 51 42 39 35 37 39 38 26 38 39 43 44 39 22 12 20 41 39 44 49 55 56 73 68 66 74 74 68
5 4 12 12 2 5 5 2 16 24 28 43 49 57 64 64 60 57 48 41 33 39 44 30 30 47 51 52 47 44 32 20 25 53 59 60 48 53 64 71 68 76 78 76
13 10 4 14 10 11 13 19 20 28 32 38 50 54 58 65 68 63 60 54 43 39 39 41 29 34 46 43 46 38 37 26 32 35 52 60 63 55 48 63 79 82 84 83
4 2 16 16 12 14 17 21 20 22 28 34 46 56 65 72 72 78 73 68 51 43 42 44 38 36 38 46 46 45 39 34 31 42 44 47 59 51 47 62 79 85 89 87
8 17 16 29 31 18 11 12 22 31 39 40 51 57 56 66 76 72 73 74 67 53 48 49 43 42 40 46 52 48 44 40 40 40 35 50 51 67 70 73 89 83 76 71
11 20 13 15 19 30 26 31 37 45 53 55 56 63 66 70 67 72 74 69 67 62 53 46 43 43 42 43 48 48 44 42 42 39 35 27 56 69 77 74 78 68 63 64
15 17 18 21 23 30 40 41 40 47 54 56 70 69 65 70 69 69 68 66 62 58 53 43 43 44 45 50 44 47 40 39 40 41 39 36 27 46 63 63 68 66 63 58
27 29 26 28 24 25 28 35 42 51 54 55 69 66 64 67 67 65 68 71 71 57 49 46 47 49 51 54 47 43 45 36 41 33 42 43 38 33 34 49 59 70 65 62
31 31 29 25 28 26 30 38 46 51 48 61 66 58 59 63 62 66 62 63 63 58 54 51 55 54 55 52 50 45 42 39 39 31 36 41 41 38 37 39 47 54 57 56
21 29 32 35 29 26 27 36 39 37 47 55 53 52 56 46 46 68 59 56 58 56 50 53 60 58 53 50 45 42 37 35 36 29 32 37 41 39 37 39 40 46 52 54
28 22 25 30 24 19 23 23 32 34 40 50 43 45 36 36 27 8 17 25 33 47 50 56 54 55 47 40 40 42 31 30 33 27 29 35 38 37 35 32 40 45 49 57
27 22 21 19 22 18 19 24 30 33 34 44 40 38 27 30 26 24 18 11 24 31 38 38 40 48 39 35 36 34 29 30 30 28 27 28 28 28 32 32 38 41 39 39
24 24 22 19 22 17 19 23 26 31 29 36 27 30 21 16 18 14 11 13 8 7 9 15 24 33 29 30 33 27 20 29 34 30 28 18 19 19 21 27 33 33 32 34
22 19 18 19 22 20 19 20 18 23 27 25 22 20 19 21 14 15 20 17 12 6 9 15 17 21 22 28 33 29 19 29 36 30 27 14 21 17 14 15 23 28 31 36
18 19 20 28 21 20 21 18 11 12 21 27 29 27 21 21 21 21 20 19 17 16 11 16 17 11 13 13 18 19 15 20 21 19 18 18 19 20 14 14 22 31 31 27
23 22 25 27 23 29 25 20 10 5 10 14 21 29 35 18 17 18 25 28 32 25 19 24 24 21 11 5 5 7 8 10 11 13 11 11 13 17 20 18 21 28 34 34
18 19 21 23 22 21 19 19 17 10 1 5 11 15 24 26 31 33 29 22 28 38 53 31 26 28 25 19 15 16 15 14 13 14 11 12 14 14 9 6 10 16 20 22
28 28 28 25 20 19 11 14 20 17 11 7 9 12 19 14 14 19 27 27 27 26 20 48 45 41 41 38 39 34 30 30 27 23 19 20 19 20 18 15 17 22 26 29
18 22 22 19 22 17 10 10 13 14 14 8 6 7 11 11 19 19 17 16 20 29 27 20 47 51 52 50 50 53 52 49 44 38 35 33 28 27 25 22 23 24 27 31
12 11 16 9 9 11 6 10 6 6 4 1 4 6 8 8 5 12 22 11 10 12 19 13 24 45 50 52 58 58 57 60 57 51 46 45 41 38 35 32 31 30 32 33
19 9 8 11 12 15 16 10 12 12 10 8 9 13 13 14 12 10 4 6 7 14 16 9 5 20 34 46 50 48 50 56 56 51 48 41 39 40 40 35 28 28 30 30
Wind_Direction_500mb
165 208 96 282 295 295 163 205 138 267 63 354 349 5 1 20 37 56 35 39 37 37 41 42 0 232 214 216 225 233 236 241 245 241 239 241 238 238 231 230 231 234 239 243
0 30 58 83 26 60 55 309 219 186 80 353 44 27 8 17 19 32 41 33 33 30 29 30 21 338 233 238 230 232 233 240 241 244 244 242 241 240 239 234 233 234 236 240
290 360 76 24 342 106 101 38 340 59 47 360 44 27 16 11 16 19 26 34 31 24 25 22 12 9 316 276 249 240 243 247 245 238 240 244 246 246 244 242 238 237 238 239
181 19 64 196 356 68 108 90 70 43 359 20 6 199 37 21 8 3 8 16 33 22 16 16 11 8 5 266 234 224 232 232 233 237 239 247 250 251 249 246 245 244 242 242
124 157 284 119 359 10 20 107 25 65 38 357 342 304 216 9 360 2 358 355 350 4 8 6 4 5 355 13 245 231 190 181 192 210 227 246 253 252 249 250 248 245 246 247
137 148 222 183 273 314 301 258 10 5 14 2 356 358 278 336 339 341 352 342 337 336 343 343 347 353 357 356 6 268 246 234 221 242 252 269 256 255 253 256 252 247 247 247
154 186 281 194 283 327 166 247 345 355 333 336 327 284 297 310 313 320 325 332 324 331 323 326 329 345 351 350 343 0 327 260 242 258 275 270 275 262 252 251 251 248 246 248
90 167 260 191 270 197 211 249 313 316 301 301 299 297 292 295 296 303 309 316 317 310 316 313 322 322 336 334 347 348 338 318 279 249 261 273 260 273 260 250 249 252 253 251
179 218 172 174 231 261 289 301 319 317 318 310 306 304 300 295 292 288 293 299 305 301 303 311 298 301 310 321 332 343 336 317 286 268 256 243 258 274 273 250 249 249 249 252
36 266 207 225 236 250 270 284 314 326 325 315 299 299 295 289 286 283 282 287 292 287 288 287 293 287 298 309 314 324 333 333 307 301 252 245 251 260 263 257 252 249 248 252
257 268 249 255 256 233 255 289 305 318 326 322 315 301 296 290 289 287 281 277 276 274 270 275 287 286 290 299 302 305 315 321 325 316 306 252 264 265 264 257 251 248 248 251
224 224 213 260 273 237 264 283 291 302 312 313 318 305 298 291 282 282 283 278 275 268 260 264 272 274 277 282 285 292 301 309 309 317 312 280 267 258 254 254 250 245 247 253
234 250 263 283 289 272 271 285 291 290 289 294 308 309 298 294 284 279 279 277 273 266 258 259 261 260 268 278 281 281 291 295 297 302 307 299 287 255 250 243 253 252 252 252
241 248 271 282 288 305 306 307 304 299 295 297 309 310 301 292 287 279 269 271 270 266 252 253 256 260 268 274 279 279 279 289 292 296 299 296 289 284 268 250 245 249 247 247
235 244 260 286 290 302 312 311 306 305 308 309 312 308 307 301 287 277 274 266 263 260 247 248 248 252 263 267 271 277 276 280 283 287 286 285 287 283 278 269 257 254 250 245
245 244 255 264 284 299 309 308 306 309 310 312 319 319 310 319 298 279 265 259 257 247 237 245 251 256 263 264 266 272 279 279 279 282 283 280 276 280 276 273 271 266 254 246
233 255 259 267 279 295 301 309 315 311 318 322 318 321 337 341 356 31 221 238 223 227 233 241 245 255 259 262 264 263 269 271 270 273 274 279 278 281 274 261 254 254 253 249
253 273 278 284 281 285 307 317 314 314 323 331 325 318 337 356 359 15 61 148 198 214 227 236 245 248 258 263 267 266 261 264 262 261 267 269 270 275 271 251 243 245 252 255
250 275 273 267 268 277 306 314 312 324 329 338 335 340 355 9 7 28 43 60 56 332 297 276 263 257 256 258 264 271 265 256 253 250 254 257 255 258 257 240 230 229 221 230
269 271 262 281 268 272 295 297 309 331 341 355 355 359 12 10 20 25 33 32 26 32 318 312 303 283 268 260 261 260 256 248 244 239 249 248 245 241 226 214 203 192 185 182
283 277 266 275 264 269 275 268 286 358 36 52 55 39 25 17 33 32 34 35 19 12 10 22 13 342 321 292 270 251 233 241 240 234 236 228 236 235 208 176 179 168 167 173
298 268 279 272 269 270 266 244 217 104 67 35 35 45 44 48 43 46 66 58 54 41 42 33 28 26 22 329 219 182 173 197 188 192 183 200 207 223 217 182 159 143 135 139
297 274 279 260 263 268 262 236 203 189 75 6 4 2 25 26 43 49 41 49 47 36 40 43 41 44 54 63 75 95 124 137 126 109 131 146 154 164 175 173 162 159 143 148
262 265 276 260 229 226 239 225 210 197 230 277 296 332 328 327 27 3 22 47 40 31 24 37 46 54 55 63 69 73 83 91 98 111 124 121 122 121 118 115 105 109 116 112
281 289 276 268 229 217 186 187 209 200 222 249 289 317 313 324 356 1 324 332 41 62 43 44 55 59 57 60 69 72 74 79 84 87 90 93 100 106 112 113 111 105 103 105
318 292 262 262 227 150 188 183 186 199 242 318 70 9 346 302 299 34 40 12 315 42 69 24 58 70 70 64 59 62 69 69 68 70 75 78 78 82 89 91 92 93 93 93
344 270 228 186 185 185 186 140 109 132 98 83 74 62 47 20 347 267 197 101 67 36 85 94 71 81 75 72 69 69 65 65 62 60 60 66 69 72 67 69 73 80 87 92
Wind_Speed_850mb
5 4 4 3 4 7 3 6 6 8 8 19 20 23 35 30 36 60 61 68 62 56 50 37 5 16 35 36 59 71 72 86 94 92 81 76 75 75 80 82 86 82 74 70
3 5 6 4 8 8 4 5 7 7 7 24 30 36 40 47 41 44 49 56 60 54 51 49 39 9 19 34 47 35 58 81 81 87 89 82 79 79 76 81 85 88 90 82
5 7 3 7 10 11 13 18 8 9 7 19 22 29 42 49 49 42 42 44 53 56 55 53 46 34 14 20 30 53 57 61 63 78 82 72 75 81 84 79 80 91 92 94
3 6 3 6 11 12 19 11 11 12 16 18 13 1 39 49 51 50 43 36 38 42 46 50 54 41 25 19 12 19 45 53 62 64 60 64 65 72 83 87 84 83 90 98
7 5 8 4 8 6 6 2 11 6 17 24 35 16 17 38 44 41 37 39 36 30 42 48 54 52 42 20 25 24 23 41 48 47 44 53 61 69 69 79 86 86 88 90
5 7 9 6 8 13 12 7 19 20 19 25 33 8 2 43 45 39 33 32 42 41 31 41 45 45 44 39 19 12 32 37 31 34 38 33 53 65 67 69 78 79 79 84
5 5 6 5 18 16 10 4 15 17 20 25 6 17 48 50 51 42 39 35 37 39 38 26 38 39 43 44 39 22 12 20 41 39 44 49 55 56 73 68 66 74 74 68
5 4 12 12 2 5 5 2 16 24 28 43 49 57 64 64 60 57 48 41 33 39 44 30 30 47 51 52 47 44 32 20 25 53 59 60 48 53 64 71 68 76 78 76
13 10 4 14 10 11 13 19 20 28 32 38 50 54 58 65 68 63 60 54 43 39 39 41 29 34 46 43 46 38 37 26 32 35 52 60 63 55 48 63 79 82 84 83
4 2 16 16 12 14 17 21 20 22 28 34 46 56 65 72 72 78 73 68 51 43 42 44 38 36 38 46 46 45 39 34 31 42 44 47 59 51 47 62 79 85 89 87
8 17 16 29 31 18 11 12 22 31 39 40 51 57 56 66 76 72 73 74 67 53 48 49 43 42 40 46 52 48 44 40 40 40 35 50 51 67 70 73 89 83 76 71
11 20 13 15 19 30 26 31 37 45 53 55 56 63 66 70 67 72 74 69 67 62 53 46 43 43 42 43 48 48 44 42 42 39 35 27 56 69 77 74 78 68 63 64
15 17 18 21 23 30 40 41 40 47 54 56 70 69 65 70 69 69 68 66 62 58 53 43 43 44 45 50 44 47 40 39 40 41 39 36 27 46 63 63 68 66 63 58
27 29 26 28 24 25 28 35 42 51 54 55 69 66 64 67 67 65 68 71 71 57 49 46 47 49 51 54 47 43 45 36 41 33 42 43 38 33 34 49 59 70 65 62
31 31 29 25 28 26 30 38 46 51 48 61 66 58 59 63 62 66 62 63 63 58 54 51 55 54 55 52 50 45 42 39 39 31 36 41 41 38 37 39 47 54 57 56
21 29 32 35 29 26 27 36 39 37 47 55 53 52 56 46 46 68 59 56 58 56 50 53 60 58 53 50 45 42 37 35 36 29 32 37 41 39 37 39 40 46 52 54
28 22 25 30 24 19 23 23 32 34 40 50 43 45 36 36 27 8 17 25 33 47 50 56 54 55 47 40 40 42 31 30 33 27 29 35 38 37 35 32 40 45 49 57
27 22 21 19 22 18 19 24 30 33 34 44 40 38 27 30 26 24 18 11 24 31 38 38 40 48 39 35 36 34 29 30 30 28 27 28 28 28 32 32 38 41 39 39
24 24 22 19 22 17 19 23 26 31 29 36 27 30 21 16 18 14 11 13 8 7 9 15 24 33 29 30 33 27 20 29 34 30 28 18 19 19 21 27 33 33 32 34
22 19 18 19 22 20 19 20 18 23 27 25 22 20 19 21 14 15 20 17 12 6 9 15 17 21 22 28 33 29 19 29 36 30 27 14 21 17 14 15 23 28 31 36
18 19 20 28 21 20 21 18 11 12 21 27 29 27 21 21 21 21 20 19 17 16 11 16 17 11 13 13 18 19 15 20 21 19 18 18 19 20 14 14 22 31 31 27
23 22 25 27 23 29 25 20 10 5 10 14 21 29 35 18 17 18 25 28 32 25 19 24 24 21 11 5 5 7 8 10 11 13 11 11 13 17 20 18 21 28 34 34
18 19 21 23 22 21 19 19 17 10 1 5 11 15 24 26 31 33 29 22 28 38 53 31 26 28 25 19 15 16 15 14 13 14 11 12 14 14 9 6 10 16 20 22
28 28 28 25 20 19 11 14 20 17 11 7 9 12 19 14 14 19 27 27 27 26 20 48 45 41 41 38 39 34 30 30 27 23 19 20 19 20 18 15 17 22 26 29
18 22 22 19 22 17 10 10 13 14 14 8 6 7 11 11 19 19 17 16 20 29 27 20 47 51 52 50 50 53 52 49 44 38 35 33 28 27 25 22 23 24 27 31
12 11 16 9 9 11 6 10 6 6 4 1 4 6 8 8 5 12 22 11 10 12 19 13 24 45 50 52 58 58 57 60 57 51 46 45 41 38 35 32 31 30 32 33
19 9 8 11 12 15 16 10 12 12 10 8 9 13 13 14 12 10 4 6 7 14 16 9 5 20 34 46 50 48 50 56 56 51 48 41 39 40 40 35 28 28 30 30
Wind_Direction_850mb
165 208 96 282 295 295 163 205 138 267 63 354 349 5 1 20 37 56 35 39 37 37 41 42 0 232 214 216 225 233 236 241 245 241 239 241 238 238 231 230 231 234 239 243
0 30 58 83 26 60 55 309 219 186 80 353 44 27 8 17 19 32 41 33 33 30 29 30 21 338 233 238 230 232 233 240 241 244 244 242 241 240 239 234 233 234 236 240
290 360 76 24 342 106 101 38 340 59 47 360 44 27 16 11 16 19 26 34 31 24 25 22 12 9 316 276 249 240 243 247 245 238 240 244 246 246 244 242 238 237 238 239
181 19 64 196 356 68 108 90 70 43 359 20 6 199 37 21 8 3 8 16 33 22 16 16 11 8 5 266 234 224 232 232 233 237 239 247 250 251 249 246 245 244 242 242
124 157 284 119 359 10 20 107 25 65 38 357 342 304 216 9 360 2 358 355 350 4 8 6 4 5 355 13 245 231 190 181 192 210 227 246 253 252 249 250 248 245 246 247
137 148 222 183 273 314 301 258 10 5 14 2 356 358 278 336 339 341 352 342 337 336 343 343 347 353 357 356 6 268 246 234 221 242 252 269 256 255 253 256 252 247 247 247
154 186 281 194 283 327 166 247 345 355 333 336 327 284 297 310 313 320 325 332 324 331 323 326 329 345 351 350 343 0 327 260 242 258 275 270 275 262 252 251 251 248 246 248
90 167 260 191 270 197 211 249 313 316 301 301 299 297 292 295 296 303 309 316 317 310 316 313 322 322 336 334 347 348 338 318 279 249 261 273 260 273 260 250 249 252 253 251
179 218 172 174 231 261 289 301 319 317 318 310 306 304 300 295 292 288 293 299 305 301 303 311 298 301 310 321 332 343 336 317 286 268 256 243 258 274 273 250 249 249 249 252
36 266 207 225 236 250 270 284 314 326 325 315 299 299 295 289 286 283 282 287 292 287 288 287 293 287 298 309 314 324 333 333 307 301 252 245 251 260 263 257 252 249 248 252
257 268 249 255 256 233 255 289 305 318 326 322 315 301 296 290 289 287 281 277 276 274 270 275 287 286 290 299 302 305 315 321 325 316 306 252 264 265 264 257 251 248 248 251
224 224 213 260 273 237 264 283 291 302 312 313 318 305 298 291 282 282 283 278 275 268 260 264 272 274 277 282 285 292 301 309 309 317 312 280 267 258 254 254 250 245 247 253
234 250 263 283 289 272 271 285 291 290 289 294 308 309 298 294 284 279 279 277 273 266 258 259 261 260 268 278 281 281 291 295 297 302 307 299 287 255 250 243 253 252 252 252
241 248 271 282 288 305 306 307 304 299 295 297 309 310 301 292 287 279 269 271 270 266 252 253 256 260 268 274 279 279 279 289 292 296 299 296 289 284 268 250 245 249 247 247
235 244 260 286 290 302 312 311 306 305 308 309 312 308 307 301 287 277 274 266 263 260 247 248 248 252 263 267 271 277 276 280 283 287 286 285 287 283 278 269 257 254 250 245
245 244 255 264 284 299 309 308 306 309 310 312 319 319 310 319 298 279 265 259 257 247 237 245 251 256 263 264 266 272 279 279 279 282 283 280 276 280 276 273 271 266 254 246
233 255 259 267 279 295 301 309 315 311 318 322 318 321 337 341 356 31 221 238 223 227 233 241 245 255 259 262 264 263 269 271 270 273 274 279 278 281 274 261 254 254 253 249
253 273 278 284 281 285 307 317 314 314 323 331 325 318 337 356 359 15 61 148 198 214 227 236 245 248 258 263 267 266 261 264 262 261 267 269 270 275 271 251 243 245 252 255
250 275 273 267 268 277 306 314 312 324 329 338 335 340 355 9 7 28 43 60 56 332 297 276 263 257 256 258 264 271 265 256 253 250 254 257 255 258 257 240 230 229 221 230
269 271 262 281 268 272 295 297 309 331 341 355 355 359 12 10 20 25 33 32 26 32 318 312 303 283 268 260 261 260 256 248 244 239 249 248 245 241 226 214 203 192 185 182
283 277 266 275 264 269 275 268 286 358 36 52 55 39 25 17 33 32 34 35 19 12 10 22 13 342 321 292 270 251 233 241 240 234 236 228 236 235 208 176 179 168 167 173
298 268 279 272 269 270 266 244 217 104 67 35 35 45 44 48 43 46 66 58 54 41 42 33 28 26 22 329 219 182 173 197 188 192 183 200 207 223 217 182 159 143 135 139
297 274 279 260 263 268 262 236 203 189 75 6 4 2 25 26 43 49 41 49 47 36 40 43 41 44 54 63 75 95 124 137 126 109 131 146 154 164 175 173 162 159 143 148
262 265 276 260 229 226 239 225 210 197 230 277 296 332 328 327 27 3 22 47 40 31 24 37 46 54 55 63 69 73 83 91 98 111 124 121 122 121 118 115 105 109 116 112
281 289 276 268 229 217 186 187 209 200 222 249 289 317 313 324 356 1 324 332 41 62 43 44 55 59 57 60 69 72 74 79 84 87 90 93 100 106 112 113 111 105 103 105
318 292 262 262 227 150 188 183 186 199 242 318 70 9 346 302 299 34 40 12 315 42 69 24 58 70 70 64 59 62 69 69 68 70 75 78 78 82 89 91 92 93 93 93
344 270 228 186 185 185 186 140 109 132 98 83 74 62 47 20 347 267 197 101 67 36 85 94 71 81 75 72 69 69 65 65 62 60 60 66 69 72 67 69 73 80 87 92